Regional Weather Roundup
Issued by NWS

Home | Current Version | Previous Version | Text Only | Print | Product List | Glossary On
Versions: 1 2 3 4 5 6 7 8 9 10 11 12 13 14 15 16 17 18 19 20 21 22 23 24 25 26 27 28 29 30 31 32 33 34 35 36 37 38 39 40 41 42 43 44 45 46 47 48 49 50
000
ASUS43 KDTX 060310
RWRMI
MICHIGAN HOURLY REGIONAL WEATHER ROUNDUP
NATIONAL WEATHER SERVICE DETROIT/PONTIAC MI
1100 PM EDT SUN JUL 05 2015

NOTE: "FAIR" INDICATES FEW OR NO CLOUDS BELOW 12,000 FEET WITH NO
SIGNIFICANT WEATHER AND/OR OBSTRUCTION TO VISIBILITY.

MIZ047>049-052>055-059>063-066>070-074>076-081>083-060400-
SOUTHEAST LOWER MICHIGAN

CITY           SKY/WX    TMP DP  RH WIND       PRES   REMARKS
ADRIAN         PTCLDY    66  59  78 CALM      30.09S
ALMA           CLEAR     69  64  84 CALM      30.06S
ANN ARBOR      PTCLDY    58  56  93 CALM      30.10R
BAD AXE        PTCLDY    67  60  78 S7        30.08F
CARO           PTCLDY    65  63  91 SE3       30.07S
DETROIT CITY   PTCLDY    70  53  54 S3        30.09S
DETROIT        MOCLDY    69  59  70 CALM      30.10R
FLINT          PTCLDY    72  58  61 S5        30.09R
GROSSE ILE     PTCLDY    68  63  83 CALM      30.08S
HILLSDALE      CLEAR     68  62  80 SE5       30.10S
HOWELL         PTCLDY    67  57  71 CALM      30.10R

CITY           SKY/WX    TMP DP  RH WIND       PRES   REMARKS
JACKSON        PTCLDY    66  59  78 SE7       30.09S
LAMBERTVILLE   PTCLDY    65  61  85 CALM      30.09S
LANSING        PTCLDY    73  59  61 S9        30.08R
LAPEER         FAIR      62  57  84 CALM      30.09S
MASON          PTCLDY    64  58  83 SE3       30.09R
MONROE         PTCLDY    65  63  94 CALM      30.07F
MT. CLEMENS    PTCLDY    67  57  69 S2        30.08R
PONTIAC        MOCLDY    67  57  70 CALM      30.09S
PORT HOPE        N/A     67  62  84 S5        30.06S
PORT HURON     MOCLDY    61  59  94 CALM      30.10S
TRI CITIES     PTCLDY    74  61  63 S8        30.06S
MIDLAND        FAIR      65  62  90 CALM      30.05S
TROY           PTCLDY    72  53  51 CALM      30.11S
SAGINAW HB     PTCLDY    68  61  77 SE6       30.06S
$$
MIZ043>046-050>051-056>058-064>065-071>073-077>080-060400-
SOUTHWEST LOWER MICHIGAN

CITY           SKY/WX    TMP DP  RH WIND       PRES   REMARKS
BATTLE CREEK   CLEAR     72  61  68 S5        30.08R
BENTON HARBOR  CLEAR     65  61  87 CALM      30.05R
BIG RAPIDS     CLEAR     66  60  82 CALM      30.05S
COLDWATER      PTCLDY    67  59  75 SE3       30.08S
FREMONT        FAIR      68  61  77 CALM      30.04R
HOLLAND        CLEAR     68  61  78 CALM      30.05R
GRAND RAPIDS   CLEAR     71  63  75 W5        30.06R
IONIA          FAIR      68  64  86 S6        30.05F
KALAMAZOO      PTCLDY    71  61  70 SE3       30.07R
LUDINGTON      CLEAR     71  60  68 SE5       30.02F
MARSHALL       PTCLDY    68  60  75 CALM      30.08S
MOUNT PLEASANT CLEAR     67  62  84 SE3       30.05S
MUSKEGON       PTCLDY    70  56  61 SE5       30.04R
SOUTH HAVEN    CLEAR     64  61  89 CALM      30.05R
$$
MIZ016>042-060400-
NORTHERN LOWER MICHIGAN

CITY           SKY/WX    TMP DP  RH WIND       PRES   REMARKS
ALPENA         CLEAR     64  57  78 CALM      30.05R
BEAVER ISLAND  CLEAR     67  57  69 SW9       30.00S
BELLAIRE       CLEAR     70  63  78 CALM      30.02R
CADILLAC       CLEAR     67  61  83 SW3       30.06R
CHARLEVOIX     CLEAR     64  60  86 CALM      30.04S
FRANKFORT      CLEAR     73  55  53 SE5       30.00F
GAYLORD        CLEAR     71  64  78 S8        30.04S
GRAYLING       CLEAR     65  60  84 S3        30.05F
HARBOR SPRINGS CLEAR     64  61  89 S3        30.01S
HOUGHTON LAKE  CLEAR     69  60  73 SE6       30.06S
MANISTEE       CLEAR    N/A N/A N/A E3        30.01F
OSCODA         CLEAR     69  61  74 SE8       30.05S
PELLSTON       CLEAR     65  62  90 CALM      30.01R
ROGERS CITY    CLEAR     70  62  78 S10       30.03S
TRAVERSE CITY  CLEAR     73  60  63 CALM      30.00R
$$
MIZ007>008-015-060400-
EASTERN UPPER MICHIGAN

CITY           SKY/WX    TMP DP  RH WIND       PRES   REMARKS
KINROSS        CLEAR     64  61  88 S3        30.00F
MACKINAC ISLAN CLEAR     64  59  84 W7        30.00S
NEWBERRY       CLEAR     62  58  88 S9        29.99S
S. S. MARIE    CLEAR     65  55  70 SE6       30.00R
MUNISING         N/A     70  59  68 S9        29.91S
$$
MIZ004>006-011>014-085-060400-
CENTRAL UPPER MICHIGAN

CITY           SKY/WX    TMP DP  RH WIND       PRES   REMARKS
MANISTIQUE     CLEAR     60  56  88 SW9       29.97F
ESCANABA       CLEAR     68  61  77 S9        29.93F
MENOMINEE      CLEAR     70  59  68 S13       29.93F
SAWYER-GWINN   PTCLDY    69  61  76 S14       29.91F
$$
MIZ001>003-009>011-084-060400-
WESTERN UPPER MICHIGAN

CITY           SKY/WX    TMP DP  RH WIND       PRES   REMARKS
IRON MOUNTAIN  CLEAR     71  62  73 S6        29.91F
HOUGHTON       MOCLDY    74  59  59 S7        29.82S
COPPER HARBOR    N/A     72  58  61 SW8       29.79S
IRONWOOD       PTCLDY    75  64  69 S14G26    29.80R
$$

ABBREVIATIONS USED IN REMARKS
   TC - TEMPERATURE IN CELSIUS
  WCI - WIND CHILL INDEX
   HX - HEAT INDEX
  VSB - VISIBILITY



USA.gov is the U.S. government's official web portal to all federal, state and local government web resources and services.